Weather History for Mercury, NV

Change the Weather History Date:

Tuesday, April 8, 2014

  Actual Average Record
Temperature  
Mean Temperature 66 °F -  
Max Temperature 86 °F 67 °F 86 °F (2014)
Min Temperature 45 °F 41 °F 32 °F (1998)
Growing Degree Days 16 (Base 50)    
Moisture  
Dew Point 14 °F    
Average Humidity 15    
Maximum Humidity 31    
Minimum Humidity 4    
Precipitation  
Precipitation 0.00 in - - ()
Sea Level Pressure  
Sea Level Pressure 30.06 in    
Wind  
Wind Speed 6 mph (South)    
Max Wind Speed 16 mph    
Max Gust Speed 21 mph    
Visibility 10 miles    
Events      
Averages and records for this station are not official NWS values.
T = Trace of Precipitation, MM = Missing Value Source: NWS Daily Summary

Daily Weather History Graph

Daily Weather History Graph

Search for Another Location

Airport:

Trip Planner

Search our weather history database for the weather conditions in past years. The results will help you decide how hot, cold, wet, or windy it might be!

Date:

Astronomy

Apr. 08, 2014 Rise Set
Actual Time 6:19 AM PDT 7:12 PM PDT
Civil Twilight 5:53 AM PDT 7:38 PM PDT
Nautical Twilight 5:22 AM PDT 8:10 PM PDT
Astronomical Twilight 4:50 AM PDT 8:42 PM PDT
Moon 1:18 PM PDT (4/8) 2:26 AM PDT (4/8)
Length of Visible Light 13h 45m
Length of Day
12h 52m
Waxing Gibbous, 63% of the Moon is Illuminated
Apr 8
Waxing Gibbous
Apr 15
Full
Apr 22
Last Quarter
Apr 28
New
May 6
First Quarter

Hourly Weather History & Observations

Time (PDT) Temp. Dew Point Humidity Pressure Visibility Wind Dir Wind Speed Gust Speed Precip Events Conditions
12:52 AM 55.0 °F 18.0 °F 23% 30.10 in 10.0 mi ESE 9.2 mph - N/A   Clear
1:52 AM 55.0 °F 17.1 °F 23% 30.09 in 10.0 mi North 3.5 mph - N/A   Clear
2:52 AM 50.0 °F 18.0 °F 28% 30.09 in 10.0 mi Calm Calm - N/A   Clear
3:52 AM 51.1 °F 18.0 °F 27% 30.09 in 10.0 mi Calm Calm - N/A   Clear
4:52 AM 48.9 °F 19.0 °F 31% 30.10 in 10.0 mi ENE 4.6 mph - N/A   Clear
5:52 AM 48.0 °F 18.0 °F 30% 30.11 in 10.0 mi Calm Calm - N/A   Clear
6:52 AM 50.0 °F 19.9 °F 31% 30.13 in 10.0 mi NE 5.8 mph - N/A   Clear
7:52 AM 57.0 °F 19.9 °F 24% 30.15 in 10.0 mi WNW 3.5 mph - N/A   Clear
8:52 AM 64.9 °F 19.9 °F 18% 30.14 in 10.0 mi NNW 3.5 mph - N/A   Clear
9:52 AM 71.1 °F 19.0 °F 14% 30.14 in 10.0 mi Calm Calm - N/A   Clear
10:52 AM 75.9 °F 18.0 °F 11% 30.13 in 10.0 mi NW 3.5 mph - N/A   Clear
11:52 AM 80.1 °F 16.0 °F 9% 30.12 in 10.0 mi SSW 9.2 mph - N/A   Clear
12:52 PM 80.1 °F 16.0 °F 9% 30.09 in 10.0 mi Variable 5.8 mph - N/A   Clear
1:52 PM 82.0 °F 16.0 °F 8% 30.06 in 10.0 mi North - - N/A   Clear
2:52 PM 82.9 °F 14.0 °F 8% 30.03 in 10.0 mi WSW 8.1 mph - N/A   Clear
3:52 PM 84.0 °F 6.1 °F 5% 30.00 in 10.0 mi SW 11.5 mph 18.4 mph N/A   Clear
4:52 PM 84.9 °F 5.0 °F 5% 29.99 in 10.0 mi SSW 16.1 mph 20.7 mph N/A   Clear
5:52 PM 82.0 °F 12.0 °F 7% 29.99 in 10.0 mi SSW 9.2 mph 17.3 mph N/A   Clear
6:52 PM 78.1 °F 8.1 °F 7% 29.99 in 10.0 mi SW 10.4 mph - N/A   Clear
7:52 PM 73.0 °F 8.1 °F 8% 30.00 in 10.0 mi SW 6.9 mph - N/A   Clear
8:52 PM 68.0 °F 9.0 °F 10% 30.01 in 10.0 mi ESE 4.6 mph - N/A   Clear
9:52 PM 66.0 °F 12.0 °F 12% 29.99 in 10.0 mi East 8.1 mph - N/A   Clear
10:52 PM 64.9 °F 10.9 °F 12% 29.99 in 10.0 mi East 10.4 mph - N/A   Clear
11:52 PM 59.0 °F 12.9 °F 16% 29.99 in 10.0 mi ENE 3.5 mph - N/A   Clear